Miscellaneous Local Product
Issued by NWS Hastings, NE

Current Version | Previous Version | Text Only | Print | Product List | Glossary On
Versions: 1 2 3 4 5 6 7 8 9 10 11 12 13 14 15 16 17 18 19 20 21 22 23 24 25 26 27 28 29 30 31 32 33 34 35 36 37 38 39 40 41 42 43 44 45 46 47 48 49 50
000
AXUS43 KGID 261202
MISGRI

GID CWA HOURLY WEATHER ROUNDUP
NATIONAL WEATHER SERVICE HASTINGS NE
700 AM CDT FRI AUG 26 2016

NOTE: "FAIR" INDICATES FEW OR NO CLOUDS BELOW 12,000 FEET WITH NO
SIGNIFICANT WEATHER AND/OR OBSTRUCTIONS TO VISIBILITY.

...SOUTH CENTRAL NEBRASKA...

CITY           SKY/WX    TMP DP  RH WIND       PRES   REMARKS
GRAND ISLAND   CLOUDY    54  53  97 SE3       30.18S
HASTINGS       CLOUDY    57  54  89 E6        30.18S
KEARNEY        CLOUDY    55  54  94 E3        30.17S
ORD            PTCLDY    51  49  92 CALM      30.18R
YORK           CLOUDY    57  55  94 N5        30.18R
AURORA         MOCLDY    56  56 100 E3        30.17F
LEXINGTON      CLOUDY    53  51  94 CALM      30.19S
HOLDREGE       CLOUDY    59  56  92 E5        30.18R FOG
HEBRON         CLOUDY    60  58  95 CALM      30.15S

...NEBRASKA PANHANDLE...

CITY           SKY/WX    TMP DP  RH WIND       PRES   REMARKS
CHADRON        HVY RAIN  54  51  90 S3        30.14R FOG
ALLIANCE       CLOUDY    54  50  86 SE12      30.14S
SCOTTSBLUFF    PTCLDY    55  50  83 CALM      30.13S
SIDNEY         MOCLDY    56  51  84 S15       30.18R

...WESTERN AND NORTH CENTRAL NEBRASKA...

CITY           SKY/WX    TMP DP  RH WIND       PRES   REMARKS
VALENTINE      MOCLDY    49  45  86 CALM      30.19S
AINSWORTH      CLEAR     49  49  98 CALM      30.19S
ONEILL         PTCLDY    51  49  94 CALM      30.19R
BROKEN BOW     PTCLDY    47  46  97 CALM      30.19R
IMPERIAL       CLOUDY    56  52  86 S6        30.18S
NORTH PLATTE   PTCLDY    51  50  96 E5        30.19R FOG
MCCOOK         CLOUDY    57  54  89 E3        30.18S

...EASTERN NEBRASKA...

CITY           SKY/WX    TMP DP  RH WIND       PRES   REMARKS
NORFOLK        MOCLDY    53  51  93 CALM      30.17S
SO SIOUX CITY  CLOUDY    55  53  93 CALM      30.18R
TEKAMAH        CLOUDY    55  53  93 CALM      30.18R
COLUMBUS       CLOUDY    52  43  71 CALM      30.18R
ALBION         CLOUDY    52  50  92 CALM      30.18S
OMAHA EPPLEY   CLOUDY    59  56  89 NW5       30.16S
OFFUTT AFB     CLOUDY    62  59  91 NE6       30.15S
MILLARD        CLOUDY    60  58  92 CALM      30.16S
LINCOLN        CLOUDY    61  58  90 N3        30.18R
NEBRASKA CITY  CLOUDY    61  61 100 NE5       30.16R
BEATRICE       CLOUDY    60  59  96 NE6       30.15R
FALLS CITY     RAIN      65  64  97 NE10      30.12F FOG

...NORTHERN KANSAS...

CITY           SKY/WX    TMP DP  RH WIND       PRES   REMARKS
GOODLAND       CLOUDY    58  55  90 SE6       30.18S
HILL CITY      CLOUDY    59  58  96 NE5       30.16S
NORTON         CLOUDY    57  54  88 CALM      30.17S
SMITH CENTER   PTCLDY    59  57  94 NE8       30.14F
BELOIT         CLOUDY    61  59  94 N7        30.11F
HAYS           CLOUDY    63  54  72 NE8       30.13S
RUSSELL        CLOUDY    62  60  93 CALM      30.12R
CONCORDIA      CLOUDY    62  60  93 N3        30.12F
SALINA         RAIN      66  64  93 NW6       30.08F
TOPEKA         CLOUDY    68  66  93 SE6       30.10R



USA.gov is the U.S. government's official web portal to all federal, state and local government web resources and services.